Weather History for Richlands, VA

Change the Weather History Date:

Wednesday, April 30, 2014

  Actual Average (KBLF) Record (KBLF)
Temperature  
Mean Temperature 66 °F 59 °F  
Max Temperature 78 °F 69 °F 84 °F (2010)
Min Temperature 55 °F 49 °F 31 °F (1963)
Degree Days  
Heating Degree Days 0 7  
Month to date heating degree days 321  
Since 1 July heating degree days 4430  
Cooling Degree Days 2 1  
Month to date cooling degree days 24  
Year to date cooling degree days 28  
Growing Degree Days 16 (Base 50)    
Moisture  
Dew Point 55 °F    
Average Humidity 69    
Maximum Humidity 94    
Minimum Humidity 41    
Precipitation  
Precipitation 0.06 in 0.12 in 1.06 in (1966)
Month to date precipitation 3.34  
Year to date precipitation 12.51  
Snow  
Snow 0.00 in - - ()
Month to date snowfall  
Since 1 July snowfall  
Snow Depth -    
Sea Level Pressure  
Sea Level Pressure 29.89 in    
Wind  
Wind Speed 9 mph (SSE)    
Max Wind Speed 18 mph    
Max Gust Speed 25 mph    
Visibility 9 miles    
Events Fog , Rain    
T = Trace of Precipitation, MM = Missing Value Source: NWS Daily Summary

Daily Weather History Graph

Daily Weather History Graph

Search for Another Location

Airport:

Trip Planner

Search our weather history database for the weather conditions in past years. The results will help you decide how hot, cold, wet, or windy it might be!

Date:

Astronomy

Apr. 30, 2014 Rise Set
Actual Time 6:33 AM EDT 8:15 PM EDT
Civil Twilight 6:06 AM EDT 8:43 PM EDT
Nautical Twilight 5:32 AM EDT 9:17 PM EDT
Astronomical Twilight 4:56 AM EDT 9:52 PM EDT
Moon 7:34 AM EDT (4/30) 9:51 PM EDT (4/30)
Length of Visible Light 14h 37m
Length of Day
13h 41m
New Moon, 2% of the Moon is Illuminated
Apr 30
New Moon
May 6
First Quarter
May 14
Full
May 21
Last Quarter
May 28
New

Hourly Weather History & Observations

Time (EDT) Temp. Dew Point Humidity Pressure Visibility Wind Dir Wind Speed Gust Speed Precip Events Conditions
12:15 AM 61.7 °F 55.4 °F 80% 29.96 in 10.0 mi SE 10.4 mph 21.9 mph N/A   Clear
12:35 AM 61.7 °F 55.4 °F 80% 29.95 in 10.0 mi SE 11.5 mph 19.6 mph N/A   Clear
12:55 AM 61.9 °F 55.0 °F 78% 29.94 in 10.0 mi SE 13.8 mph 20.7 mph N/A   Clear
1:15 AM 62.8 °F 55.0 °F 76% 29.96 in 10.0 mi SE 8.1 mph 19.6 mph N/A   Mostly Cloudy
1:35 AM 62.6 °F 54.9 °F 76% 29.96 in 10.0 mi SE 10.4 mph - N/A   Overcast
1:55 AM 62.6 °F 54.9 °F 76% 29.94 in 10.0 mi SE 8.1 mph 18.4 mph N/A   Overcast
2:15 AM 62.8 °F 55.0 °F 76% 29.93 in 10.0 mi SE 13.8 mph 19.6 mph N/A   Overcast
2:35 AM 62.4 °F 55.2 °F 77% 29.92 in 10.0 mi SE 11.5 mph 20.7 mph N/A   Overcast
2:55 AM 62.1 °F 55.4 °F 79% 29.91 in 10.0 mi SE 11.5 mph 19.6 mph N/A   Mostly Cloudy
3:15 AM 62.6 °F 55.4 °F 77% 29.90 in 10.0 mi SE 8.1 mph 16.1 mph N/A   Scattered Clouds
3:35 AM 63.0 °F 55.4 °F 76% 29.89 in 10.0 mi SE 9.2 mph - N/A   Clear
3:55 AM 62.6 °F 55.4 °F 77% 29.90 in 10.0 mi SSE 8.1 mph - N/A   Clear
4:15 AM 63.5 °F 55.4 °F 75% 29.89 in 10.0 mi SSE 8.1 mph - N/A   Scattered Clouds
4:35 AM 63.3 °F 55.4 °F 75% 29.88 in 10.0 mi ESE 8.1 mph - N/A   Scattered Clouds
4:55 AM 62.8 °F 55.4 °F 77% 29.89 in 10.0 mi SE 8.1 mph - N/A   Scattered Clouds
5:15 AM 63.5 °F 55.6 °F 75% 29.88 in 10.0 mi SE 10.4 mph - N/A   Overcast
5:35 AM 63.7 °F 55.6 °F 75% 29.88 in 10.0 mi ESE 9.2 mph 19.6 mph N/A   Overcast
5:55 AM 63.9 °F 55.8 °F 75% 29.89 in 10.0 mi SE 9.2 mph - N/A Rain Rain
6:15 AM 63.7 °F 56.1 °F 76% 29.89 in 10.0 mi SE 4.6 mph - N/A   Overcast
6:35 AM 64.2 °F 56.3 °F 75% 29.90 in 10.0 mi ESE 3.5 mph - N/A   Overcast
6:55 AM 63.9 °F 56.3 °F 76% 29.90 in 10.0 mi ESE 8.1 mph - N/A   Overcast
7:15 AM 64.0 °F 56.3 °F 76% 29.90 in 10.0 mi ESE 6.9 mph - N/A   Overcast
7:35 AM 64.2 °F 56.3 °F 75% 29.90 in 10.0 mi SE 8.1 mph - N/A   Overcast
7:55 AM 64.6 °F 56.3 °F 74% 29.89 in 10.0 mi SE 8.1 mph 16.1 mph N/A   Overcast
8:15 AM 65.5 °F 56.3 °F 72% 29.88 in 10.0 mi SE 8.1 mph - N/A   Overcast
8:35 AM 65.7 °F 56.3 °F 72% 29.87 in 10.0 mi SE 8.1 mph 17.3 mph N/A   Overcast
8:55 AM 67.1 °F 56.5 °F 69% 29.88 in 10.0 mi SSE 6.9 mph - N/A   Overcast
9:15 AM 67.8 °F 56.7 °F 67% 29.88 in 10.0 mi SSE 6.9 mph 17.3 mph N/A   Mostly Cloudy
9:35 AM 68.7 °F 56.7 °F 65% 29.89 in 10.0 mi SSE 11.5 mph 16.1 mph N/A   Scattered Clouds
9:55 AM 68.9 °F 56.5 °F 65% 29.88 in 10.0 mi SSE 8.1 mph - N/A   Scattered Clouds
10:15 AM 70.0 °F 57.0 °F 63% 29.89 in 10.0 mi South 9.2 mph - N/A   Clear
10:35 AM 70.7 °F 56.3 °F 60% 29.89 in 10.0 mi South 9.2 mph 18.4 mph N/A   Scattered Clouds
10:55 AM 71.1 °F 56.1 °F 59% 29.90 in 10.0 mi South 11.5 mph 16.1 mph N/A   Scattered Clouds
11:15 AM 71.8 °F 55.9 °F 57% 29.88 in 10.0 mi South 6.9 mph 19.6 mph N/A   Clear
11:35 AM 72.5 °F 55.8 °F 56% 29.89 in 10.0 mi South 9.2 mph 18.4 mph N/A   Scattered Clouds
11:55 AM 73.6 °F 55.9 °F 54% 29.89 in 10.0 mi SSE 5.8 mph - N/A   Mostly Cloudy
12:15 PM 73.0 °F 56.1 °F 55% 29.89 in 10.0 mi SSE 8.1 mph - N/A   Overcast
12:35 PM 74.3 °F 56.1 °F 53% 29.88 in 10.0 mi SSE 5.8 mph - N/A   Scattered Clouds
12:55 PM 73.8 °F 55.0 °F 52% 29.87 in 10.0 mi SSW 10.4 mph 17.3 mph N/A   Scattered Clouds
1:15 PM 74.8 °F 55.6 °F 51% 29.85 in 10.0 mi South 4.6 mph 16.1 mph N/A   Scattered Clouds
1:35 PM 75.6 °F 54.0 °F 47% 29.85 in 10.0 mi SSW 11.5 mph 20.7 mph N/A   Clear
1:55 PM 74.8 °F 52.9 °F 46% 29.84 in 10.0 mi South 9.2 mph 20.7 mph N/A   Clear
2:15 PM 75.2 °F 52.7 °F 45% 29.84 in 10.0 mi South 8.1 mph - N/A   Clear
2:35 PM 75.2 °F 53.4 °F 47% 29.84 in 10.0 mi South 5.8 mph - N/A   Scattered Clouds
2:55 PM 75.4 °F 53.8 °F 47% 29.84 in 10.0 mi South 4.6 mph - N/A   Scattered Clouds
3:15 PM 75.2 °F 52.5 °F 45% 29.85 in 10.0 mi SSW 9.2 mph 16.1 mph N/A   Scattered Clouds
3:35 PM 75.2 °F 51.6 °F 44% 29.85 in 10.0 mi South 6.9 mph - N/A   Overcast
3:55 PM 75.2 °F 51.6 °F 44% 29.84 in 10.0 mi SSW 15.0 mph 21.9 mph N/A   Overcast
4:15 PM 78.3 °F 53.2 °F 42% 29.84 in 10.0 mi South 6.9 mph 18.4 mph N/A   Mostly Cloudy
4:35 PM 77.4 °F 51.8 °F 41% 29.84 in 10.0 mi South 18.4 mph 25.3 mph N/A   Mostly Cloudy
4:55 PM 76.6 °F 52.2 °F 42% 29.84 in 10.0 mi SSW 11.5 mph 23.0 mph N/A   Mostly Cloudy
5:15 PM 77.0 °F 52.3 °F 42% 29.83 in 10.0 mi SW 11.5 mph 20.7 mph N/A   Overcast
5:35 PM 77.4 °F 52.7 °F 42% 29.82 in 10.0 mi SSW 10.4 mph 18.4 mph N/A   Mostly Cloudy
5:55 PM 77.0 °F 52.3 °F 42% 29.82 in 10.0 mi WSW 10.4 mph 18.4 mph N/A   Scattered Clouds
6:15 PM 71.6 °F 58.3 °F 63% 29.84 in 10.0 mi WNW 10.4 mph 20.7 mph N/A   Mostly Cloudy
6:35 PM 66.2 °F 59.2 °F 78% 29.85 in 10.0 mi WNW 12.7 mph 17.3 mph N/A   Overcast
6:55 PM 61.3 °F 57.9 °F 89% 29.87 in 10.0 mi NNW 10.4 mph - 0.03 in Rain Light Rain
7:15 PM 59.5 °F 55.9 °F 88% 29.87 in 10.0 mi NNW 12.7 mph 17.3 mph N/A   Overcast
7:35 PM 59.0 °F 55.0 °F 87% 29.90 in 10.0 mi NNW 10.4 mph - N/A   Overcast
7:55 PM 58.5 °F 54.5 °F 87% 29.91 in 10.0 mi NW 6.9 mph - N/A   Overcast
8:15 PM 57.6 °F 54.7 °F 90% 29.91 in 10.0 mi NNW 6.9 mph - N/A Rain Light Rain
8:35 PM 57.0 °F 54.3 °F 91% 29.93 in 10.0 mi NNW 5.8 mph - N/A Rain Rain
8:55 PM 56.7 °F 54.0 °F 91% 29.94 in 5.0 mi NNW 3.5 mph - N/A Rain Heavy Rain
9:15 PM 56.3 °F 54.1 °F 92% 29.96 in 3.0 mi Calm Calm - N/A   Drizzle
9:35 PM 55.4 °F 53.2 °F 92% 29.96 in 5.0 mi WNW 4.6 mph - 0.01 in   Heavy Drizzle
10:15 PM 55.6 °F 53.8 °F 94% 29.97 in 5.0 mi NW 3.5 mph - N/A Rain Rain
10:35 PM 55.8 °F 54.0 °F 94% 29.97 in 0.5 mi NW 3.5 mph - 0.01 in Rain Light Rain
10:55 PM 55.8 °F 54.0 °F 94% 29.96 in 10.0 mi Calm Calm - 0.01 in   Overcast
11:15 PM 55.9 °F 54.0 °F 93% 29.96 in 7.0 mi Calm Calm - N/A Rain Light Rain
11:35 PM 55.9 °F 54.1 °F 94% 29.94 in 0.5 mi SE 4.6 mph - 0.01 in Fog Fog
11:55 PM 55.9 °F 54.1 °F 94% 29.96 in 3.0 mi Calm Calm - 0.01 in Rain Rain